Вернуться в каталог

ARIANE 1 DEB

АктивенHEO
NORAD 26922·DEBRIS·🇫🇷 France

Запущен Mar 5, 1984 с Guiana Space Centre

Loading…

Ближайшие Пролёты (ближайшие 24 часа)

TLE

СвежийSource: Space-Track

Эпоха: Sep 9, 2026, 09:16 UTC

1 26922U 84023H   26252.38641990 -.00000049  00000-0  00000-0 0  9999
2 26922   8.6985 193.3342 6453428 223.6662  64.4444  2.77110296286347

Отслеживайте ARIANE 1 DEB в реальном времени с AllMySat

Download on the App Store